Year,Month,Day,Hour,Minute,Value (Times are PST for temperature in C)
2013,07,12,00,00,11.90
2013,07,12,00,01,11.90
2013,07,12,00,02,11.80
2013,07,12,00,03,11.80
2013,07,12,00,04,11.80
2013,07,12,00,05,11.80
2013,07,12,00,06,11.80
2013,07,12,00,07,11.80
2013,07,12,00,08,11.80
2013,07,12,00,09,11.80
2013,07,12,00,10,11.80
2013,07,12,00,11,11.80
2013,07,12,00,12,11.80
2013,07,12,00,13,11.80
2013,07,12,00,14,11.80
2013,07,12,00,15,11.80
2013,07,12,00,16,11.80
2013,07,12,00,17,11.80
2013,07,12,00,18,11.80
2013,07,12,00,19,11.80
2013,07,12,00,20,11.80
2013,07,12,00,21,11.80
2013,07,12,00,22,11.80
2013,07,12,00,23,11.80
2013,07,12,00,24,11.80
2013,07,12,00,25,11.80
2013,07,12,00,26,11.70
2013,07,12,00,27,11.70
2013,07,12,00,28,11.70
2013,07,12,00,29,11.70
2013,07,12,00,30,11.70
2013,07,12,00,31,11.70
2013,07,12,00,32,11.70
2013,07,12,00,33,11.70
2013,07,12,00,34,11.70
2013,07,12,00,35,11.60
2013,07,12,00,36,11.60
2013,07,12,00,37,11.60
2013,07,12,00,38,11.60
2013,07,12,00,39,11.60
2013,07,12,00,40,11.50
2013,07,12,00,41,11.50
2013,07,12,00,42,11.50
2013,07,12,00,43,11.40
2013,07,12,00,44,11.40
2013,07,12,00,45,11.40
2013,07,12,00,46,11.40
2013,07,12,00,47,11.40
2013,07,12,00,48,11.40
2013,07,12,00,49,11.40
2013,07,12,00,50,11.30
2013,07,12,00,51,11.30
2013,07,12,00,52,11.30
2013,07,12,00,53,11.30
2013,07,12,00,54,11.30
2013,07,12,00,55,11.30
2013,07,12,00,56,11.30
2013,07,12,00,57,11.30
2013,07,12,00,58,11.20
2013,07,12,00,59,11.20
2013,07,12,01,00,11.20
2013,07,12,01,01,11.20
2013,07,12,01,02,11.20
2013,07,12,01,03,11.20
2013,07,12,01,04,11.20
2013,07,12,01,05,11.20
2013,07,12,01,06,11.20
2013,07,12,01,07,11.20
2013,07,12,01,08,11.10
2013,07,12,01,09,11.10
2013,07,12,01,10,11.10
2013,07,12,01,11,11.10
2013,07,12,01,12,11.10
2013,07,12,01,13,11.10
2013,07,12,01,14,11.10
2013,07,12,01,15,11.10
2013,07,12,01,16,11.10
2013,07,12,01,17,11.10
2013,07,12,01,18,11.10
2013,07,12,01,19,11.10
2013,07,12,01,20,11.10
2013,07,12,01,21,11.10
2013,07,12,01,22,11.10
2013,07,12,01,23,11.10
2013,07,12,01,24,11.10
2013,07,12,01,25,11.10
2013,07,12,01,26,11.00
2013,07,12,01,27,11.00
2013,07,12,01,28,11.00
2013,07,12,01,29,11.00
2013,07,12,01,30,11.00
2013,07,12,01,31,11.00
2013,07,12,01,32,10.90
2013,07,12,01,33,10.90
2013,07,12,01,34,10.90
2013,07,12,01,35,10.90
2013,07,12,01,36,10.90
2013,07,12,01,37,10.90
2013,07,12,01,38,10.90
2013,07,12,01,39,10.90
2013,07,12,01,40,10.90
2013,07,12,01,41,10.90
2013,07,12,01,42,10.90
2013,07,12,01,43,10.90
2013,07,12,01,44,10.90
2013,07,12,01,45,10.90
2013,07,12,01,46,10.90
2013,07,12,01,47,10.90
2013,07,12,01,48,10.90
2013,07,12,01,49,10.90
2013,07,12,01,50,10.90
2013,07,12,01,51,10.90
2013,07,12,01,52,10.90
2013,07,12,01,53,11.00
2013,07,12,01,54,11.00
2013,07,12,01,55,11.00
2013,07,12,01,56,11.00
2013,07,12,01,57,11.00
2013,07,12,01,58,11.00
2013,07,12,01,59,11.00
2013,07,12,02,00,11.00
2013,07,12,02,01,11.00
2013,07,12,02,02,11.00
2013,07,12,02,03,10.90
2013,07,12,02,04,10.90
2013,07,12,02,05,10.90
2013,07,12,02,06,10.90
2013,07,12,02,07,10.90
2013,07,12,02,08,10.90
2013,07,12,02,09,10.90
2013,07,12,02,10,10.90
2013,07,12,02,11,10.90
2013,07,12,02,12,10.90
2013,07,12,02,13,10.80
2013,07,12,02,14,10.80
2013,07,12,02,15,10.80
2013,07,12,02,16,10.80
2013,07,12,02,17,10.80
2013,07,12,02,18,10.80
2013,07,12,02,19,10.80
2013,07,12,02,20,10.70
2013,07,12,02,21,10.70
2013,07,12,02,22,10.70
2013,07,12,02,23,10.70
2013,07,12,02,24,10.70
2013,07,12,02,25,10.70
2013,07,12,02,26,10.70
2013,07,12,02,27,10.70
2013,07,12,02,28,10.70
2013,07,12,02,29,10.70
2013,07,12,02,30,10.70
2013,07,12,02,31,10.70
2013,07,12,02,32,10.70
2013,07,12,02,33,10.70
2013,07,12,02,34,10.70
2013,07,12,02,35,10.70
2013,07,12,02,36,10.70
2013,07,12,02,37,10.70
2013,07,12,02,38,10.70
2013,07,12,02,39,10.70
2013,07,12,02,40,10.70
2013,07,12,02,41,10.70
2013,07,12,02,42,10.70
2013,07,12,02,43,10.70
2013,07,12,02,44,10.70
2013,07,12,02,45,10.70
2013,07,12,02,46,10.70
2013,07,12,02,47,10.60
2013,07,12,02,48,10.60
2013,07,12,02,49,10.60
2013,07,12,02,50,10.60
2013,07,12,02,51,10.60
2013,07,12,02,52,10.60
2013,07,12,02,53,10.60
2013,07,12,02,54,10.50
2013,07,12,02,55,10.50
2013,07,12,02,56,10.50
2013,07,12,02,57,10.40
2013,07,12,02,58,10.40
2013,07,12,02,59,10.40
2013,07,12,03,00,10.40
2013,07,12,03,01,10.40
2013,07,12,03,02,10.40
2013,07,12,03,03,10.40
2013,07,12,03,04,10.40
2013,07,12,03,05,10.40
2013,07,12,03,06,10.40
2013,07,12,03,07,10.30
2013,07,12,03,08,10.30
2013,07,12,03,09,10.30
2013,07,12,03,10,10.30
2013,07,12,03,11,10.30
2013,07,12,03,12,10.30
2013,07,12,03,13,10.30
2013,07,12,03,14,10.30
2013,07,12,03,15,10.30
2013,07,12,03,16,10.30
2013,07,12,03,17,10.20
2013,07,12,03,18,10.20
2013,07,12,03,19,10.20
2013,07,12,03,20,10.20
2013,07,12,03,21,10.20
2013,07,12,03,22,10.20
2013,07,12,03,23,10.20
2013,07,12,03,24,10.30
2013,07,12,03,25,10.30
2013,07,12,03,26,10.30
2013,07,12,03,27,10.30
2013,07,12,03,28,10.30
2013,07,12,03,29,10.30
2013,07,12,03,30,10.30
2013,07,12,03,31,10.30
2013,07,12,03,32,10.30
2013,07,12,03,33,10.30
2013,07,12,03,34,10.30
2013,07,12,03,35,10.30
2013,07,12,03,36,10.30
2013,07,12,03,37,10.30
2013,07,12,03,38,10.20
2013,07,12,03,39,10.20
2013,07,12,03,40,10.20
2013,07,12,03,41,10.20
2013,07,12,03,42,10.20
2013,07,12,03,43,10.20
2013,07,12,03,44,10.20
2013,07,12,03,45,10.20
2013,07,12,03,46,10.20
2013,07,12,03,47,10.20
2013,07,12,03,48,10.10
2013,07,12,03,49,10.10
2013,07,12,03,50,10.10
2013,07,12,03,51,10.10
2013,07,12,03,52,10.10
2013,07,12,03,53,10.00
2013,07,12,03,54,10.00
2013,07,12,03,55,10.00
2013,07,12,03,56,10.00
2013,07,12,03,57,9.90
2013,07,12,03,58,9.90
2013,07,12,03,59,9.90
2013,07,12,04,00,9.90
2013,07,12,04,01,9.90
2013,07,12,04,02,9.90
2013,07,12,04,03,9.80
2013,07,12,04,04,9.80
2013,07,12,04,05,9.80
2013,07,12,04,06,9.80
2013,07,12,04,07,9.80
2013,07,12,04,08,9.80
2013,07,12,04,09,9.80
2013,07,12,04,10,9.70
2013,07,12,04,11,9.70
2013,07,12,04,12,9.70
2013,07,12,04,13,9.70
2013,07,12,04,14,9.70
2013,07,12,04,15,9.60
2013,07,12,04,16,9.60
2013,07,12,04,17,9.60
2013,07,12,04,18,9.60
2013,07,12,04,19,9.50
2013,07,12,04,20,9.50
2013,07,12,04,21,9.50
2013,07,12,04,22,9.40
2013,07,12,04,23,9.40
2013,07,12,04,24,9.40
2013,07,12,04,25,9.30
2013,07,12,04,26,9.30
2013,07,12,04,27,9.30
2013,07,12,04,28,9.30
2013,07,12,04,29,9.30
2013,07,12,04,30,9.20
2013,07,12,04,31,9.20
2013,07,12,04,32,9.20
2013,07,12,04,33,9.20
2013,07,12,04,34,9.20
2013,07,12,04,35,9.10
2013,07,12,04,36,9.10
2013,07,12,04,37,9.10
2013,07,12,04,38,9.10
2013,07,12,04,39,9.10
2013,07,12,04,40,9.00
2013,07,12,04,41,9.00
2013,07,12,04,42,9.00
2013,07,12,04,43,9.00
2013,07,12,04,44,9.00
2013,07,12,04,45,8.90
2013,07,12,04,46,8.90
2013,07,12,04,47,8.90
2013,07,12,04,48,8.90
2013,07,12,04,49,8.90
2013,07,12,04,50,8.90
2013,07,12,04,51,8.90
2013,07,12,04,52,8.80
2013,07,12,04,53,8.80
2013,07,12,04,54,8.80
2013,07,12,04,55,8.80
2013,07,12,04,56,8.80
2013,07,12,04,57,8.80
2013,07,12,04,58,8.80
2013,07,12,04,59,8.80
2013,07,12,05,00,8.80
2013,07,12,05,01,8.80
2013,07,12,05,02,8.80
2013,07,12,05,03,8.80
2013,07,12,05,04,8.80
2013,07,12,05,05,8.80
2013,07,12,05,06,8.80
2013,07,12,05,07,8.90
2013,07,12,05,08,8.90
2013,07,12,05,09,8.90
2013,07,12,05,10,8.90
2013,07,12,05,11,8.90
2013,07,12,05,12,8.90
2013,07,12,05,13,8.90
2013,07,12,05,14,8.90
2013,07,12,05,15,8.90
2013,07,12,05,16,9.00
2013,07,12,05,17,9.00
2013,07,12,05,18,9.00
2013,07,12,05,19,9.00
2013,07,12,05,20,9.00
2013,07,12,05,21,9.00
2013,07,12,05,22,9.00
2013,07,12,05,23,9.10
2013,07,12,05,24,9.10
2013,07,12,05,25,9.10
2013,07,12,05,26,9.10
2013,07,12,05,27,9.10
2013,07,12,05,28,9.10
2013,07,12,05,29,9.20
2013,07,12,05,30,9.20
2013,07,12,05,31,9.20
2013,07,12,05,32,9.20
2013,07,12,05,33,9.20
2013,07,12,05,34,9.30
2013,07,12,05,35,9.30
2013,07,12,05,36,9.30
2013,07,12,05,37,9.30
2013,07,12,05,38,9.30
2013,07,12,05,39,9.30
2013,07,12,05,40,9.30
2013,07,12,05,41,9.30
2013,07,12,05,42,9.40
2013,07,12,05,43,9.40
2013,07,12,05,44,9.40
2013,07,12,05,45,9.40
2013,07,12,05,46,9.40
2013,07,12,05,47,9.40
2013,07,12,05,48,9.40
2013,07,12,05,49,9.40
2013,07,12,05,50,9.50
2013,07,12,05,51,9.50
2013,07,12,05,52,9.50
2013,07,12,05,53,9.50
2013,07,12,05,54,9.50
2013,07,12,05,55,9.60
2013,07,12,05,56,9.60
2013,07,12,05,57,9.60
2013,07,12,05,58,9.60
2013,07,12,05,59,9.60
2013,07,12,06,00,9.60
2013,07,12,06,01,9.60
2013,07,12,06,02,9.60
2013,07,12,06,03,9.70
2013,07,12,06,04,9.70
2013,07,12,06,05,9.70
2013,07,12,06,06,9.70
2013,07,12,06,07,9.70
2013,07,12,06,08,9.70
2013,07,12,06,09,9.70
2013,07,12,06,10,9.70
2013,07,12,06,11,9.70
2013,07,12,06,12,9.80
2013,07,12,06,13,9.80
2013,07,12,06,14,9.80
2013,07,12,06,15,9.80
2013,07,12,06,16,9.80
2013,07,12,06,17,9.80
2013,07,12,06,18,9.80
2013,07,12,06,19,9.80
2013,07,12,06,20,9.80
2013,07,12,06,21,9.90
2013,07,12,06,22,9.90
2013,07,12,06,23,9.90
2013,07,12,06,24,9.90
2013,07,12,06,25,9.90
2013,07,12,06,26,9.90
2013,07,12,06,27,10.00
2013,07,12,06,28,10.00
2013,07,12,06,29,10.00
2013,07,12,06,30,10.00
2013,07,12,06,31,10.10
2013,07,12,06,32,10.10
2013,07,12,06,33,10.10
2013,07,12,06,34,10.10
2013,07,12,06,35,10.20
2013,07,12,06,36,10.20
2013,07,12,06,37,10.20
2013,07,12,06,38,10.20
2013,07,12,06,39,10.20
2013,07,12,06,40,10.20
2013,07,12,06,41,10.20
2013,07,12,06,42,10.30
2013,07,12,06,43,10.30
2013,07,12,06,44,10.30
2013,07,12,06,45,10.30
2013,07,12,06,46,10.30
2013,07,12,06,47,10.40
2013,07,12,06,48,10.40
2013,07,12,06,49,10.40
2013,07,12,06,50,10.50
2013,07,12,06,51,10.50
2013,07,12,06,52,10.60
2013,07,12,06,53,10.60
2013,07,12,06,54,10.60
2013,07,12,06,55,10.60
2013,07,12,06,56,10.60
2013,07,12,06,57,10.60
2013,07,12,06,58,10.60
2013,07,12,06,59,10.60
2013,07,12,07,00,10.70
2013,07,12,07,01,10.70
2013,07,12,07,02,10.70
2013,07,12,07,03,10.70
2013,07,12,07,04,10.70
2013,07,12,07,05,10.70
2013,07,12,07,06,10.80
2013,07,12,07,07,10.80
2013,07,12,07,08,10.80
2013,07,12,07,09,10.80
2013,07,12,07,10,10.80
2013,07,12,07,11,10.80
2013,07,12,07,12,10.90
2013,07,12,07,13,10.90
2013,07,12,07,14,10.90
2013,07,12,07,15,11.00
2013,07,12,07,16,11.00
2013,07,12,07,17,11.10
2013,07,12,07,18,11.10
2013,07,12,07,19,11.10
2013,07,12,07,20,11.20
2013,07,12,07,21,11.20
2013,07,12,07,22,11.20
2013,07,12,07,23,11.20
2013,07,12,07,24,11.30
2013,07,12,07,25,11.30
2013,07,12,07,26,11.30
2013,07,12,07,27,11.40
2013,07,12,07,28,11.40
2013,07,12,07,29,11.40
2013,07,12,07,30,11.40
2013,07,12,07,31,11.50
2013,07,12,07,32,11.50
2013,07,12,07,33,11.60
2013,07,12,07,34,11.60
2013,07,12,07,35,11.60
2013,07,12,07,36,11.70
2013,07,12,07,37,11.70
2013,07,12,07,38,11.70
2013,07,12,07,39,11.70
2013,07,12,07,40,11.70
2013,07,12,07,41,11.80
2013,07,12,07,42,11.80
2013,07,12,07,43,11.80
2013,07,12,07,44,11.80
2013,07,12,07,45,11.80
2013,07,12,07,46,11.90
2013,07,12,07,47,11.90
2013,07,12,07,48,11.90
2013,07,12,07,49,11.90
2013,07,12,07,50,11.90
2013,07,12,07,51,12.00
2013,07,12,07,52,12.00
2013,07,12,07,53,12.00
2013,07,12,07,54,12.10
2013,07,12,07,55,12.10
2013,07,12,07,56,12.10
2013,07,12,07,57,12.10
2013,07,12,07,58,12.10
2013,07,12,07,59,12.20
2013,07,12,08,00,12.20
2013,07,12,08,01,12.20
2013,07,12,08,02,12.20
2013,07,12,08,03,12.30
2013,07,12,08,04,12.20
2013,07,12,08,05,12.30
2013,07,12,08,06,12.30
2013,07,12,08,07,12.30
2013,07,12,08,08,12.30
2013,07,12,08,09,12.30
2013,07,12,08,10,12.30
2013,07,12,08,11,12.30
2013,07,12,08,12,12.40
2013,07,12,08,13,12.40
2013,07,12,08,14,12.40
2013,07,12,08,15,12.50
2013,07,12,08,16,12.50
2013,07,12,08,17,12.50
2013,07,12,08,18,12.60
2013,07,12,08,19,12.60
2013,07,12,08,20,12.70
2013,07,12,08,21,12.70
2013,07,12,08,22,12.70
2013,07,12,08,23,12.70
2013,07,12,08,24,12.80
2013,07,12,08,25,12.80
2013,07,12,08,26,12.80
2013,07,12,08,27,12.80
2013,07,12,08,28,12.80
2013,07,12,08,29,12.80
2013,07,12,08,30,12.90
2013,07,12,08,31,12.90
2013,07,12,08,32,12.90
2013,07,12,08,33,12.90
2013,07,12,08,34,12.90
2013,07,12,08,35,13.00
2013,07,12,08,36,13.00
2013,07,12,08,37,13.00
2013,07,12,08,38,13.00
2013,07,12,08,39,13.10
2013,07,12,08,40,13.10
2013,07,12,08,41,13.20
2013,07,12,08,42,13.20
2013,07,12,08,43,13.30
2013,07,12,08,44,13.30
2013,07,12,08,45,13.40
2013,07,12,08,46,13.40
2013,07,12,08,47,13.50
2013,07,12,08,48,13.50
2013,07,12,08,49,13.60
2013,07,12,08,50,13.60
2013,07,12,08,51,13.60
2013,07,12,08,52,13.60
2013,07,12,08,53,13.70
2013,07,12,08,54,13.70
2013,07,12,08,55,13.70
2013,07,12,08,56,13.70
2013,07,12,08,57,13.80
2013,07,12,08,58,13.80
2013,07,12,08,59,13.90
2013,07,12,09,00,13.90
2013,07,12,09,01,13.90
2013,07,12,09,02,13.90
2013,07,12,09,03,13.90
2013,07,12,09,04,14.00
2013,07,12,09,05,14.00
2013,07,12,09,06,14.00
2013,07,12,09,07,14.10
2013,07,12,09,08,14.10
2013,07,12,09,09,14.20
2013,07,12,09,10,14.30
2013,07,12,09,11,14.30
2013,07,12,09,12,14.30
2013,07,12,09,13,14.40
2013,07,12,09,14,14.40
2013,07,12,09,15,14.40
2013,07,12,09,16,14.30
2013,07,12,09,17,14.40
2013,07,12,09,18,14.40
2013,07,12,09,19,14.50
2013,07,12,09,20,14.60
2013,07,12,09,21,14.60
2013,07,12,09,22,14.70
2013,07,12,09,23,14.80
2013,07,12,09,24,15.00
2013,07,12,09,25,15.00
2013,07,12,09,26,15.00
2013,07,12,09,27,15.00
2013,07,12,09,28,15.00
2013,07,12,09,29,15.00
2013,07,12,09,30,15.10
2013,07,12,09,31,15.30
2013,07,12,09,32,15.30
2013,07,12,09,33,15.40
2013,07,12,09,34,15.50
2013,07,12,09,35,15.50
2013,07,12,09,36,15.60
2013,07,12,09,37,15.70
2013,07,12,09,38,15.70
2013,07,12,09,39,15.70
2013,07,12,09,40,15.80
2013,07,12,09,41,15.90
2013,07,12,09,42,15.90
2013,07,12,09,43,16.10
2013,07,12,09,44,16.20
2013,07,12,09,45,16.30
2013,07,12,09,46,16.40
2013,07,12,09,47,16.40
2013,07,12,09,48,16.50
2013,07,12,09,49,16.50
2013,07,12,09,50,16.60
2013,07,12,09,51,16.70
2013,07,12,09,52,16.70
2013,07,12,09,53,16.70
2013,07,12,09,54,16.70
2013,07,12,09,55,16.60
2013,07,12,09,56,16.60
2013,07,12,09,57,16.60
2013,07,12,09,58,16.60
2013,07,12,09,59,16.70
2013,07,12,10,00,16.80
2013,07,12,10,01,16.80
2013,07,12,10,02,16.80
2013,07,12,10,03,16.90
2013,07,12,10,04,16.90
2013,07,12,10,05,16.90
2013,07,12,10,06,17.00
2013,07,12,10,07,17.00
2013,07,12,10,08,17.00
2013,07,12,10,09,17.10
2013,07,12,10,10,17.10
2013,07,12,10,11,17.10
2013,07,12,10,12,17.10
2013,07,12,10,13,17.20
2013,07,12,10,14,17.20
2013,07,12,10,15,17.20
2013,07,12,10,16,17.20
2013,07,12,10,17,17.20
2013,07,12,10,18,17.20
2013,07,12,10,19,17.20
2013,07,12,10,20,17.20
2013,07,12,10,21,17.20
2013,07,12,10,22,17.30
2013,07,12,10,23,17.30
2013,07,12,10,24,17.40
2013,07,12,10,25,17.50
2013,07,12,10,26,17.60
2013,07,12,10,27,17.70
2013,07,12,10,28,17.80
2013,07,12,10,29,17.70
2013,07,12,10,30,17.60
2013,07,12,10,31,17.40
2013,07,12,10,32,17.20
2013,07,12,10,33,17.20
2013,07,12,10,34,17.10
2013,07,12,10,35,17.10
2013,07,12,10,36,17.20
2013,07,12,10,37,17.20
2013,07,12,10,38,17.30
2013,07,12,10,39,17.50
2013,07,12,10,40,17.60
2013,07,12,10,41,17.80
2013,07,12,10,42,17.90
2013,07,12,10,43,18.00
2013,07,12,10,44,18.10
2013,07,12,10,45,18.20
2013,07,12,10,46,18.30
2013,07,12,10,47,18.40
2013,07,12,10,48,18.50
2013,07,12,10,49,18.60
2013,07,12,10,50,18.70
2013,07,12,10,51,18.70
2013,07,12,10,52,18.70
2013,07,12,10,53,18.60
2013,07,12,10,54,18.60
2013,07,12,10,55,18.60
2013,07,12,10,56,18.50
2013,07,12,10,57,18.50
2013,07,12,10,58,18.60
2013,07,12,10,59,18.60
2013,07,12,11,00,18.70
2013,07,12,11,01,18.80
2013,07,12,11,02,18.90
2013,07,12,11,03,19.10
2013,07,12,11,04,19.10
2013,07,12,11,05,19.10
2013,07,12,11,06,19.00
2013,07,12,11,07,18.90
2013,07,12,11,08,18.80
2013,07,12,11,09,18.80
2013,07,12,11,10,18.80
2013,07,12,11,11,18.70
2013,07,12,11,12,18.60
2013,07,12,11,13,18.50
2013,07,12,11,14,18.50
2013,07,12,11,15,18.50
2013,07,12,11,16,18.60
2013,07,12,11,17,18.70
2013,07,12,11,18,18.80
2013,07,12,11,19,19.00
2013,07,12,11,20,19.20
2013,07,12,11,21,19.30
2013,07,12,11,22,19.40
2013,07,12,11,23,19.50
2013,07,12,11,24,19.60
2013,07,12,11,25,19.70
2013,07,12,11,26,19.70
2013,07,12,11,27,19.70
2013,07,12,11,28,19.70
2013,07,12,11,29,19.70
2013,07,12,11,30,19.70
2013,07,12,11,31,19.70
2013,07,12,11,32,19.70
2013,07,12,11,33,19.60
2013,07,12,11,34,19.60
2013,07,12,11,35,19.60
2013,07,12,11,36,19.60
2013,07,12,11,37,19.60
2013,07,12,11,38,19.60
2013,07,12,11,39,19.70
2013,07,12,11,40,19.80
2013,07,12,11,41,19.80
2013,07,12,11,42,19.80
2013,07,12,11,43,19.90
2013,07,12,11,44,20.00
2013,07,12,11,45,20.00
2013,07,12,11,46,20.00
2013,07,12,11,47,20.00
2013,07,12,11,48,19.90
2013,07,12,11,49,19.90
2013,07,12,11,50,19.90
2013,07,12,11,51,19.80
2013,07,12,11,52,19.80
2013,07,12,11,53,19.80
2013,07,12,11,54,19.70
2013,07,12,11,55,19.70
2013,07,12,11,56,19.80
2013,07,12,11,57,19.80
2013,07,12,11,58,19.90
2013,07,12,11,59,20.00
2013,07,12,12,00,20.10
2013,07,12,12,01,20.20
2013,07,12,12,02,20.30
2013,07,12,12,03,20.40
2013,07,12,12,04,20.50
2013,07,12,12,05,20.60
2013,07,12,12,06,20.60
2013,07,12,12,07,20.70
2013,07,12,12,08,20.80
2013,07,12,12,09,20.80
2013,07,12,12,10,20.80
2013,07,12,12,11,20.80
2013,07,12,12,12,20.80
2013,07,12,12,13,20.80
2013,07,12,12,14,20.80
2013,07,12,12,15,20.80
2013,07,12,12,16,20.70
2013,07,12,12,17,20.60
2013,07,12,12,18,20.50
2013,07,12,12,19,20.50
2013,07,12,12,20,20.40
2013,07,12,12,21,20.30
2013,07,12,12,22,20.30
2013,07,12,12,23,20.30
2013,07,12,12,24,20.30
2013,07,12,12,25,20.20
2013,07,12,12,26,20.20
2013,07,12,12,27,20.30
2013,07,12,12,28,20.30
2013,07,12,12,29,20.30
2013,07,12,12,30,20.30
2013,07,12,12,31,20.40
2013,07,12,12,32,20.50
2013,07,12,12,33,20.60
2013,07,12,12,34,20.70
2013,07,12,12,35,20.80
2013,07,12,12,36,20.90
2013,07,12,12,37,20.90
2013,07,12,12,38,21.00
2013,07,12,12,39,21.00
2013,07,12,12,40,20.90
2013,07,12,12,41,20.90
2013,07,12,12,42,20.90
2013,07,12,12,43,20.80
2013,07,12,12,44,20.90
2013,07,12,12,45,21.00
2013,07,12,12,46,21.10
2013,07,12,12,47,21.20
2013,07,12,12,48,21.10
2013,07,12,12,49,21.00
2013,07,12,12,50,20.90
2013,07,12,12,51,20.80
2013,07,12,12,52,20.70
2013,07,12,12,53,20.60
2013,07,12,12,54,20.50
2013,07,12,12,55,20.40
2013,07,12,12,56,20.40
2013,07,12,12,57,20.40
2013,07,12,12,58,20.40
2013,07,12,12,59,20.50
2013,07,12,13,00,20.60
2013,07,12,13,01,20.70
2013,07,12,13,02,20.70
2013,07,12,13,03,20.80
2013,07,12,13,04,20.90
2013,07,12,13,05,21.00
2013,07,12,13,06,21.10
2013,07,12,13,07,21.10
2013,07,12,13,08,21.00
2013,07,12,13,09,20.90
2013,07,12,13,10,20.90
2013,07,12,13,11,20.90
2013,07,12,13,12,20.90
2013,07,12,13,13,20.80
2013,07,12,13,14,20.80
2013,07,12,13,15,20.80
2013,07,12,13,16,20.70
2013,07,12,13,17,20.70
2013,07,12,13,18,20.80
2013,07,12,13,19,20.80
2013,07,12,13,20,20.90
2013,07,12,13,21,21.10
2013,07,12,13,22,21.20
2013,07,12,13,23,21.30
2013,07,12,13,24,21.30
2013,07,12,13,25,21.30
2013,07,12,13,26,21.30
2013,07,12,13,27,21.40
2013,07,12,13,28,21.50
2013,07,12,13,29,21.60
2013,07,12,13,30,21.70
2013,07,12,13,31,21.80
2013,07,12,13,32,21.90
2013,07,12,13,33,21.90
2013,07,12,13,34,21.90
2013,07,12,13,35,21.80
2013,07,12,13,36,21.60
2013,07,12,13,37,21.30
2013,07,12,13,38,21.00
2013,07,12,13,39,20.90
2013,07,12,13,40,20.80
2013,07,12,13,41,20.60
2013,07,12,13,42,20.50
2013,07,12,13,43,20.40
2013,07,12,13,44,20.30
2013,07,12,13,45,20.10
2013,07,12,13,46,20.00
2013,07,12,13,47,19.90
2013,07,12,13,48,19.80
2013,07,12,13,49,19.80
2013,07,12,13,50,19.80
2013,07,12,13,51,19.80
2013,07,12,13,52,19.90
2013,07,12,13,53,20.00
2013,07,12,13,54,20.10
2013,07,12,13,55,20.20
2013,07,12,13,56,20.40
2013,07,12,13,57,20.50
2013,07,12,13,58,20.60
2013,07,12,13,59,20.80
2013,07,12,14,00,20.90
2013,07,12,14,01,21.00
2013,07,12,14,02,21.10
2013,07,12,14,03,21.20
2013,07,12,14,04,21.30
2013,07,12,14,05,21.40
2013,07,12,14,06,21.40
2013,07,12,14,07,21.40
2013,07,12,14,08,21.30
2013,07,12,14,09,21.30
2013,07,12,14,10,21.30
2013,07,12,14,11,21.20
2013,07,12,14,12,21.10
2013,07,12,14,13,20.90
2013,07,12,14,14,20.80
2013,07,12,14,15,20.60
2013,07,12,14,16,20.50
2013,07,12,14,17,20.40
2013,07,12,14,18,20.40
2013,07,12,14,19,20.40
2013,07,12,14,20,20.50
2013,07,12,14,21,20.50
2013,07,12,14,22,20.50
2013,07,12,14,23,20.40
2013,07,12,14,24,20.30
2013,07,12,14,25,20.20
2013,07,12,14,26,20.10
2013,07,12,14,27,20.00
2013,07,12,14,28,19.90
2013,07,12,14,29,19.90
2013,07,12,14,30,19.90
2013,07,12,14,31,19.90
2013,07,12,14,32,19.80
2013,07,12,14,33,19.80
2013,07,12,14,34,19.80
2013,07,12,14,35,19.90
2013,07,12,14,36,19.90
2013,07,12,14,37,20.00
2013,07,12,14,38,20.00
2013,07,12,14,39,20.10
2013,07,12,14,40,20.10
2013,07,12,14,41,20.20
2013,07,12,14,42,20.30
2013,07,12,14,43,20.30
2013,07,12,14,44,20.30
2013,07,12,14,45,20.30
2013,07,12,14,46,20.30
2013,07,12,14,47,20.20
2013,07,12,14,48,20.20
2013,07,12,14,49,20.20
2013,07,12,14,50,20.20
2013,07,12,14,51,20.30
2013,07,12,14,52,20.30
2013,07,12,14,53,20.40
2013,07,12,14,54,20.40
2013,07,12,14,55,20.50
2013,07,12,14,56,20.50
2013,07,12,14,57,20.60
2013,07,12,14,58,20.70
2013,07,12,14,59,20.70
2013,07,12,15,00,20.80
2013,07,12,15,01,20.80
2013,07,12,15,02,20.80
2013,07,12,15,03,20.80
2013,07,12,15,04,20.90
2013,07,12,15,05,21.00
2013,07,12,15,06,21.10
2013,07,12,15,07,21.20
2013,07,12,15,08,21.20
2013,07,12,15,09,21.30
2013,07,12,15,10,21.20
2013,07,12,15,11,21.20
2013,07,12,15,12,21.20
2013,07,12,15,13,21.20
2013,07,12,15,14,21.20
2013,07,12,15,15,21.30
2013,07,12,15,16,21.40
2013,07,12,15,17,21.40
2013,07,12,15,18,21.40
2013,07,12,15,19,21.40
2013,07,12,15,20,21.40
2013,07,12,15,21,21.30
2013,07,12,15,22,21.30
2013,07,12,15,23,21.20
2013,07,12,15,24,21.10
2013,07,12,15,25,21.00
2013,07,12,15,26,20.90
2013,07,12,15,27,20.80
2013,07,12,15,28,20.70
2013,07,12,15,29,20.50
2013,07,12,15,30,20.40
2013,07,12,15,31,20.30
2013,07,12,15,32,20.20
2013,07,12,15,33,20.20
2013,07,12,15,34,20.10
2013,07,12,15,35,20.00
2013,07,12,15,36,20.00
2013,07,12,15,37,20.00
2013,07,12,15,38,20.00
2013,07,12,15,39,20.10
2013,07,12,15,40,20.10
2013,07,12,15,41,20.20
2013,07,12,15,42,20.20
2013,07,12,15,43,20.30
2013,07,12,15,44,20.30
2013,07,12,15,45,20.30
2013,07,12,15,46,20.30
2013,07,12,15,47,20.30
2013,07,12,15,48,20.30
2013,07,12,15,49,20.40
2013,07,12,15,50,20.40
2013,07,12,15,51,20.40
2013,07,12,15,52,20.40
2013,07,12,15,53,20.40
2013,07,12,15,54,20.40
2013,07,12,15,55,20.40
2013,07,12,15,56,20.40
2013,07,12,15,57,20.30
2013,07,12,15,58,20.30
2013,07,12,15,59,20.30
2013,07,12,16,00,20.30
2013,07,12,16,01,20.20
2013,07,12,16,02,20.20
2013,07,12,16,03,20.20
2013,07,12,16,04,20.20
2013,07,12,16,05,20.20
2013,07,12,16,06,20.30
2013,07,12,16,07,20.30
2013,07,12,16,08,20.30
2013,07,12,16,09,20.30
2013,07,12,16,10,20.20
2013,07,12,16,11,20.10
2013,07,12,16,12,20.10
2013,07,12,16,13,20.00
2013,07,12,16,14,20.00
2013,07,12,16,15,19.90
2013,07,12,16,16,19.90
2013,07,12,16,17,19.90
2013,07,12,16,18,19.90
2013,07,12,16,19,19.80
2013,07,12,16,20,19.80
2013,07,12,16,21,19.80
2013,07,12,16,22,19.80
2013,07,12,16,23,19.80
2013,07,12,16,24,19.80
2013,07,12,16,25,19.80
2013,07,12,16,26,19.90
2013,07,12,16,27,19.90
2013,07,12,16,28,20.00
2013,07,12,16,29,20.10
2013,07,12,16,30,20.20
2013,07,12,16,31,20.30
2013,07,12,16,32,20.40
2013,07,12,16,33,20.40
2013,07,12,16,34,20.30
2013,07,12,16,35,20.10
2013,07,12,16,36,20.00
2013,07,12,16,37,19.90
2013,07,12,16,38,19.80
2013,07,12,16,39,19.60
2013,07,12,16,40,19.40
2013,07,12,16,41,19.30
2013,07,12,16,42,19.20
2013,07,12,16,43,19.10
2013,07,12,16,44,19.00
2013,07,12,16,45,18.90
2013,07,12,16,46,18.80
2013,07,12,16,47,18.70
2013,07,12,16,48,18.60
2013,07,12,16,49,18.60
2013,07,12,16,50,18.50
2013,07,12,16,51,18.50
2013,07,12,16,52,18.40
2013,07,12,16,53,18.40
2013,07,12,16,54,18.30
2013,07,12,16,55,18.30
2013,07,12,16,56,18.30
2013,07,12,16,57,18.30
2013,07,12,16,58,18.30
2013,07,12,16,59,18.30
2013,07,12,17,00,18.30
2013,07,12,17,01,18.30
2013,07,12,17,02,18.30
2013,07,12,17,03,18.30
2013,07,12,17,04,18.30
2013,07,12,17,05,18.30
2013,07,12,17,06,18.30
2013,07,12,17,07,18.30
2013,07,12,17,08,18.30
2013,07,12,17,09,18.30
2013,07,12,17,10,18.30
2013,07,12,17,11,18.20
2013,07,12,17,12,18.10
2013,07,12,17,13,18.00
2013,07,12,17,14,17.90
2013,07,12,17,15,17.80
2013,07,12,17,16,17.70
2013,07,12,17,17,17.50
2013,07,12,17,18,17.40
2013,07,12,17,19,17.30
2013,07,12,17,20,17.20
2013,07,12,17,21,17.10
2013,07,12,17,22,17.00
2013,07,12,17,23,16.90
2013,07,12,17,24,16.80
2013,07,12,17,25,16.70